User: anonymous   Login
Location: Pensacola
(30.4142°N, 87.2155°W)
Time: 20:46:22
(UTC-05:00)
Language:

NANOSAT C BR1 - Orbit

View from above orbital plane
View from above orbital plane
View from above satellite
View from above satellite

Ground track
Ground track

The orbit data is extracted from the following two-line orbital elements,

1 40024U 14033Q   24111.40775767  .00019888  00000-0  15280-2 0  9995
2 40024  98.0552  81.1929 0007462  16.7295 343.4173 15.01758936534574
Epoch (UTC): 20 April 2024 09:47:10
Eccentricity: 0.0007462
inclination: 98.0552°
perigee height: 556 km
apogee height: 566 km
right ascension of ascending node: 81.1929°
argument of perigee: 16.7295°
revolutions per day: 15.01758936
mean anomaly at epoch: 343.4173°
orbit number at epoch: 53457

The dashed part of the orbit path shows where the satellite is in the earth's shadow,  

DLR